Temp
8 8 8 8 8 8 7 7 8 8 9 11 13 13 13 13 13 12 10 18 18 18 18 18 19 19 20 20 21 21 18 17 22 23 24 25 25 26 26 26 25 27 28 27 24
8 8 8 8 8 8 8 8 7 8 8 11 13 13 13 13 11 10 19 19 18 18 18 17 17 18 17 19 19 20 16 19 22 24 23 24 25 24 25 24 25 25 26 27 27
7 8 8 8 8 8 8 7 7 8 8 10 13 13 13 12 11 18 20 19 18 18 17 17 17 18 19 19 19 19 17 21 23 23 23 23 23 25 24 24 25 24 25 27 26
7 7 7 7 8 8 8 8 8 8 9 11 12 12 13 11 17 20 20 19 19 18 17 17 17 17 17 18 18 19 19 21 22 22 22 22 23 24 24 24 25 24 24 25 25
8 7 8 8 8 8 8 7 8 8 10 12 12 12 12 13 14 19 20 19 18 18 17 17 18 17 17 17 18 18 19 19 19 19 20 21 22 23 23 24 25 25 24 24 24
8 8 8 8 8 8 8 8 7 9 12 12 11 11 11 15 18 20 20 20 18 18 17 16 18 18 17 17 17 18 18 18 19 20 20 21 22 23 24 25 25 25 24 24 23
8 8 8 8 8 8 7 8 11 12 13 12 11 10 10 14 19 19 19 20 20 19 18 18 19 19 17 17 17 18 17 17 18 19 20 20 20 21 23 25 25 24 24 24 24
8 8 7 8 8 7 8 10 13 14 14 13 11 9 11 19 19 20 20 20 20 19 19 21 20 18 18 18 15 16 15 16 18 19 20 20 20 22 21 23 23 23 23 23 22
7 7 7 8 9 8 10 12 13 14 14 12 10 11 14 18 19 21 21 20 21 20 20 20 19 16 15 15 13 13 15 16 17 18 19 19 18 21 20 21 21 22 23 23 21
7 7 6 8 9 12 13 14 13 13 12 12 11 12 16 18 19 20 21 21 20 20 18 17 13 14 12 13 13 15 15 15 16 17 17 16 16 18 19 19 19 20 21 21 21
6 6 6 8 10 12 14 13 12 12 12 15 15 15 16 18 19 20 21 21 19 17 16 16 14 14 16 14 15 16 15 15 16 17 16 16 16 17 18 18 18 19 20 20 20
7 6 6 8 11 14 14 13 14 14 12 14 14 15 16 17 17 18 20 20 19 17 17 14 15 16 17 17 16 16 16 15 15 17 17 16 16 18 18 18 19 19 19 19 19
6 6 6 9 12 14 14 14 15 15 12 15 16 16 16 17 16 17 19 18 18 17 16 15 17 17 17 17 17 16 16 15 15 15 15 15 17 17 18 18 19 18 18 18 18
6 6 7 12 12 13 14 15 16 15 12 17 18 19 18 18 18 19 20 19 18 16 16 15 17 18 17 17 16 16 16 16 15 14 12 16 12 16 16 17 17 17 17 17 16
8 8 11 12 12 13 15 15 16 15 13 19 19 21 19 19 19 20 20 19 17 16 16 16 18 17 16 16 16 15 17 16 15 13 12 13 12 15 16 16 17 18 19 16 15
11 12 13 13 13 15 15 15 15 13 14 17 19 19 18 18 19 19 19 19 18 16 16 15 17 17 16 17 16 16 15 13 11 10 10 12 12 13 15 16 16 17 16 16 15
13 13 14 13 13 15 15 13 12 12 17 17 17 18 17 16 17 17 16 14 15 16 15 16 17 17 17 16 15 14 11 10 11 11 12 13 12 14 15 17 17 17 15 15 14
15 14 15 15 15 15 14 12 13 15 16 17 18 17 16 16 16 16 15 14 15 15 12 13 14 15 16 16 15 13 11 10 11 11 13 14 11 13 15 15 15 15 14 14 13
15 15 15 15 15 15 10 11 12 15 16 15 16 16 15 16 16 14 14 14 15 14 13 12 13 16 16 15 15 13 11 12 11 10 7 12 12 14 15 15 14 14 14 13 13
13 13 14 14 14 14 9 12 14 16 15 16 15 16 14 14 14 14 14 15 14 15 14 13 11 13 14 16 15 13 13 11 8 10 11 12 12 13 14 15 14 14 14 13 12
12 11 14 15 14 9 9 11 13 16 16 15 15 14 14 14 13 13 13 14 14 14 13 12 10 12 14 13 13 12 11 10 10 9 10 12 13 13 14 14 13 14 14 12 12
7 12 14 15 10 5 10 12 14 15 15 14 14 15 13 14 13 12 12 13 15 14 13 11 9 9 11 14 13 12 12 10 11 11 9 11 13 14 13 13 12 12 12 12 13
6 6 13 14 7 8 9 11 13 14 14 13 13 13 13 13 12 12 13 14 14 13 12 11 10 9 11 13 13 13 13 12 10 10 10 10 13 15 13 13 13 11 12 14 14
5 8 7 5 6 9 8 10 12 13 13 13 13 13 12 11 11 11 12 13 12 12 15 12 9 10 10 12 11 11 12 12 11 10 11 11 11 13 13 13 13 12 13 13 13
3 5 5 7 6 6 7 8 11 11 11 11 12 12 11 10 10 9 10 11 11 12 11 10 10 11 11 11 11 12 11 11 11 11 11 12 12 13 13 12 12 11 12 12 12
4 4 3 4 5 6 8 9 9 9 9 10 10 9 9 8 9 9 9 9 9 10 9 8 10 10 10 11 11 11 12 12 12 12 12 11 11 13 12 11 11 11 11 11 13
5 5 5 4 4 6 6 8 8 7 8 9 9 8 8 9 9 8 8 9 9 9 8 9 10 10 11 11 10 11 12 12 13 13 11 11 13 12 11 10 10 10 10 10 12
Height
810 807 804 801 798 795 792 789 787 784 781 779 778 776 773 770 765 762 760 755 754 755 755 756 755 754 754 757 757 756 780 787 771 766 760 745 750 741 738 742 739 732 731 730 726
810 807 803 799 796 793 790 787 785 782 780 778 776 774 771 768 764 760 754 754 754 755 756 757 756 755 759 759 759 763 782 774 760 755 759 750 747 748 747 745 743 735 729 726 728
809 806 802 798 795 791 788 785 783 780 778 776 774 772 770 767 766 755 753 754 754 755 756 757 755 756 759 759 762 763 775 760 755 753 753 755 747 745 748 745 741 743 731 726 723
807 804 800 797 793 789 786 783 780 778 775 773 772 770 768 768 769 753 754 754 754 755 756 756 756 760 764 764 764 769 761 758 756 754 754 755 748 743 743 741 735 736 731 726 724
806 802 798 794 790 786 783 780 777 775 773 771 771 769 768 768 760 753 753 754 754 755 755 755 757 760 766 766 766 768 765 762 759 757 755 753 749 743 732 736 731 730 728 724 721
803 800 795 791 787 783 780 776 773 771 770 770 769 769 770 768 753 752 752 752 752 753 754 755 755 754 761 764 769 764 764 762 757 754 752 753 747 740 729 728 729 726 725 722 719
802 797 792 788 783 779 776 772 769 768 768 769 769 769 770 760 751 751 751 751 751 751 751 751 751 754 760 763 764 762 766 760 753 749 748 747 746 739 729 726 729 726 724 722 719
799 794 789 784 780 775 772 768 766 765 765 766 768 769 765 751 750 749 749 749 749 750 750 749 750 753 757 760 769 772 774 776 756 752 747 748 751 736 734 731 732 730 726 725 721
796 791 785 780 775 771 767 764 762 761 762 765 768 769 761 750 749 748 748 748 748 749 749 749 750 760 764 774 784 782 781 775 767 753 752 752 756 736 735 736 736 732 727 726 725
792 787 782 776 771 768 765 763 763 763 765 766 768 771 754 753 749 747 747 747 749 748 751 754 765 773 781 783 792 781 780 774 773 759 757 759 757 746 739 738 737 732 728 727 725
790 784 778 773 769 765 764 765 768 768 766 761 759 760 755 752 748 746 747 747 748 754 764 763 774 778 771 773 770 771 775 776 768 758 760 757 752 747 740 737 735 732 728 724 723
786 780 775 769 766 765 764 765 770 771 769 755 755 756 753 754 756 747 746 752 753 763 761 772 774 764 762 762 765 767 770 772 767 758 758 757 745 736 734 730 727 728 728 723 719
782 776 771 766 764 765 766 768 767 766 772 758 752 752 751 753 756 751 746 750 755 762 763 770 761 757 759 762 765 767 768 769 771 761 756 754 734 733 727 724 722 723 724 722 719
779 773 768 764 767 765 766 766 765 764 780 759 752 748 750 749 753 742 742 748 756 763 765 766 756 756 760 763 764 768 760 762 765 771 780 758 765 735 731 727 723 722 722 720 718
775 769 766 765 766 766 767 764 763 765 788 755 752 745 746 752 749 743 740 745 755 759 764 764 757 759 763 761 760 766 757 762 763 772 773 768 779 742 729 732 728 715 709 712 713
772 768 767 767 766 767 764 762 764 782 784 762 752 754 753 751 750 745 743 742 745 756 757 760 753 755 755 753 756 759 764 769 780 784 790 769 772 737 733 726 720 712 710 710 710
771 768 767 768 768 766 763 763 782 789 761 766 763 758 760 761 757 754 757 761 762 763 765 759 755 752 750 757 760 767 782 796 789 784 775 761 766 737 722 716 714 712 710 705 705
772 770 769 769 768 766 764 775 782 772 770 760 758 759 765 761 762 760 761 766 757 761 772 774 772 756 752 756 764 770 779 797 789 779 763 754 761 731 713 711 709 708 708 705 702
772 772 771 770 768 767 773 789 785 772 768 767 762 764 767 763 764 767 767 767 761 762 771 777 772 754 752 753 759 768 775 767 775 779 804 755 743 718 708 707 709 708 706 703 700
773 773 772 771 768 767 782 781 775 766 766 762 769 764 769 770 769 771 769 760 762 760 761 766 777 761 755 751 751 757 760 777 796 781 765 743 736 725 712 708 707 706 701 699 696
776 776 773 770 768 776 794 786 774 764 764 765 764 765 765 767 769 772 767 762 758 760 762 768 779 767 758 758 757 763 767 775 779 779 776 750 717 708 708 707 706 700 696 699 695
781 781 771 768 782 799 789 779 771 766 765 765 762 760 765 765 769 771 769 763 755 758 764 766 781 780 764 743 746 752 758 766 765 767 774 756 706 702 706 705 706 701 698 694 689
792 790 774 769 801 798 790 779 773 767 766 767 766 765 765 766 770 766 761 755 756 758 764 766 776 779 759 747 747 747 749 753 763 764 753 757 702 695 700 700 698 701 691 685 681
794 795 787 785 794 792 797 786 775 767 767 767 766 765 768 769 768 767 764 758 759 759 754 759 773 768 766 751 754 753 747 748 754 752 736 731 712 706 702 701 698 693 687 681 676
801 808 808 802 800 800 799 791 779 776 773 771 767 767 771 777 775 773 767 764 759 753 757 761 760 757 751 751 748 743 740 738 743 735 737 712 717 704 702 697 693 688 682 677 669
810 812 810 809 804 800 793 786 785 782 782 774 773 778 777 781 775 771 771 770 769 757 760 763 760 757 750 743 741 739 726 724 720 718 716 719 714 696 693 691 690 687 682 674 665
811 811 810 808 806 799 796 787 786 791 779 775 778 780 778 771 767 766 763 757 758 760 763 759 756 754 741 738 743 733 711 710 707 704 715 713 694 693 691 691 689 684 678 671 663
Wind_Speed
18 18 19 19 19 18 18 17 17 16 15 15 14 15 17 22 26 12 5 3 3 2 4 11 4 2 4 1 2 3 1 4 5 4 2 5 5 2 3 4 5 3 2 6 6
20 19 18 19 19 19 18 18 17 16 15 14 14 15 17 21 17 9 1 3 4 0 3 4 3 4 2 2 2 3 4 7 3 0 4 11 5 8 4 7 3 6 8 14 2
21 21 20 20 19 19 19 18 17 16 15 13 12 13 16 13 4 4 1 3 4 1 1 2 1 1 2 1 2 2 4 2 0 1 2 5 17 2 6 11 1 9 15 13 7
22 21 21 21 21 20 19 19 17 17 15 12 10 12 11 4 3 0 2 4 3 2 1 1 1 3 2 2 4 1 3 3 2 6 5 5 9 11 13 11 6 7 11 6 9
24 23 24 23 22 21 20 18 17 16 13 9 8 9 4 2 7 2 4 5 3 2 1 1 1 3 2 1 3 3 1 3 6 6 4 7 10 16 18 10 11 10 10 11 9
26 26 26 25 24 23 22 19 17 14 9 5 6 4 1 2 3 1 5 7 6 4 2 5 4 3 4 2 2 2 2 6 5 7 4 7 11 10 1 8 8 8 7 9 10
29 29 28 27 26 25 23 20 14 9 5 4 3 1 0 10 0 1 5 9 8 9 2 5 3 3 4 3 1 2 4 6 5 5 6 7 13 12 12 5 8 8 9 9 10
30 29 28 28 28 26 24 17 12 10 7 4 2 2 6 2 6 8 8 8 11 10 12 4 3 4 2 1 5 3 4 4 5 2 5 6 7 4 6 4 7 6 7 8 9
31 30 30 29 28 26 23 13 3 2 4 7 3 2 7 8 4 4 7 5 3 5 4 4 4 3 5 3 4 5 0 1 7 1 4 2 5 3 6 5 6 5 2 5 8
32 32 31 29 26 23 17 6 10 9 10 6 0 1 4 3 5 8 8 10 1 3 4 6 5 4 3 4 2 3 3 4 4 5 5 9 6 8 7 7 8 7 6 5 6
33 32 31 28 22 17 9 2 4 3 2 5 4 3 4 9 4 2 3 3 3 6 2 3 4 2 6 6 5 2 3 4 4 4 6 9 10 9 9 7 7 7 7 6 6
34 31 29 25 18 5 7 4 3 2 6 6 6 5 8 4 4 6 1 2 2 1 1 5 2 6 3 3 4 3 2 3 5 6 5 8 18 12 7 6 6 5 7 8 6
37 32 29 22 4 4 4 4 13 2 1 6 3 3 4 9 5 6 7 2 3 2 2 4 4 2 3 0 1 1 3 2 5 5 5 7 12 5 4 4 5 6 6 6 8
38 32 24 10 3 3 2 12 10 2 4 4 2 1 4 3 3 8 10 6 1 6 4 4 3 1 1 3 4 3 4 3 4 6 4 5 9 5 6 11 7 7 7 8 8
36 25 14 2 1 2 5 14 2 3 4 3 1 1 2 4 2 4 5 3 8 5 5 7 2 3 3 5 6 6 1 3 2 4 3 3 3 2 8 10 12 16 17 8 8
25 13 6 3 2 3 12 8 3 4 1 5 2 4 2 4 3 5 3 3 2 5 3 6 3 4 5 2 3 3 2 3 3 2 1 4 6 6 3 4 6 5 6 6 7
17 9 4 3 2 11 12 3 4 4 4 2 2 3 2 3 4 5 4 5 2 2 2 3 1 1 2 2 3 4 5 4 4 2 5 4 0 14 10 19 15 12 9 8 7
12 7 4 4 9 11 4 4 4 3 2 4 2 3 1 3 1 6 3 4 4 3 2 3 3 3 1 3 4 6 7 4 5 3 9 4 7 8 5 6 6 6 7 8 9
7 6 4 8 9 10 5 4 5 1 4 3 6 1 2 3 2 6 3 4 3 1 4 4 4 3 4 4 6 3 4 4 3 2 2 5 6 13 15 13 8 9 8 10 9
5 6 5 13 8 5 4 2 2 1 4 3 4 3 3 4 2 2 3 3 3 4 2 3 3 6 5 1 5 5 5 1 2 4 5 4 10 11 7 6 8 10 10 8 7
4 3 7 11 4 5 3 4 4 4 2 3 3 4 3 3 4 3 4 4 5 1 1 4 4 4 2 5 7 1 2 3 3 4 3 7 9 6 9 10 9 11 10 8 10
4 2 11 10 4 1 1 1 5 3 3 3 2 2 4 4 3 4 6 6 0 3 3 4 4 4 9 14 6 5 5 7 3 4 4 5 19 8 7 9 6 12 10 11 13
2 3 6 4 2 3 5 4 3 3 2 3 3 1 2 2 3 5 4 1 3 1 4 4 1 4 7 3 4 2 3 3 2 2 18 9 17 5 2 8 8 9 12 16 17
2 4 4 4 1 3 4 5 4 3 1 3 3 1 1 2 4 4 2 3 1 2 6 5 5 7 8 8 3 15 17 13 9 7 10 12 24 19 21 17 13 14 14 16 14
4 0 1 4 2 2 1 3 3 4 4 3 2 2 3 3 3 6 4 3 6 11 3 7 7 10 16 15 15 18 21 18 16 19 13 19 17 21 19 18 13 10 10 16 17
2 3 3 3 2 3 2 2 2 4 3 4 2 7 4 4 6 15 7 4 6 3 5 2 3 4 13 15 16 18 22 18 18 17 17 14 15 13 13 13 13 14 14 17 15
5 2 2 3 3 2 3 2 2 4 6 7 5 7 5 9 6 9 11 13 10 6 6 5 3 3 8 3 6 9 10 7 4 4 5 6 19 11 15 14 14 17 19 19 15
Wind_Direction
347 345 342 340 337 334 331 329 327 324 322 320 323 326 325 323 321 319 237 220 61 217 319 316 340 21 147 214 214 140 120 217 239 201 243 298 4 309 324 270 337 312 321 314 50
344 341 340 338 335 333 331 327 323 320 317 318 322 325 325 326 323 278 304 185 173 308 359 4 28 11 90 220 214 159 180 213 215 290 332 309 287 318 326 317 295 306 313 335 245
343 340 337 334 332 330 328 324 320 316 313 314 321 324 327 327 298 257 51 134 146 148 26 324 348 71 128 136 234 151 198 219 49 89 299 273 298 308 305 290 152 318 310 324 330
345 341 337 333 330 328 324 320 316 311 309 313 321 324 332 330 167 22 127 152 167 200 351 9 43 69 79 159 345 300 253 343 333 353 319 275 307 284 262 274 283 309 290 291 301
347 343 337 333 329 326 323 317 312 308 305 310 322 332 355 332 251 10 186 196 209 232 207 101 49 117 93 326 331 169 4 334 306 285 258 278 273 275 272 284 271 260 274 280 285
342 340 338 333 328 325 322 316 310 305 298 299 314 342 323 275 294 15 227 233 234 239 192 171 200 161 116 138 154 304 273 283 252 248 234 247 261 247 325 11 314 290 291 298 293
338 337 336 333 328 324 322 316 314 306 293 269 300 174 219 237 36 5 254 247 256 235 227 216 196 106 131 350 250 264 294 307 243 242 231 200 261 254 283 212 242 269 277 276 279
335 335 335 332 328 325 323 319 310 282 255 226 149 179 248 250 293 262 243 258 254 258 241 275 188 100 107 70 17 38 41 12 288 353 270 171 263 19 26 43 335 358 350 343 323
334 335 334 331 329 328 326 328 10 59 171 158 149 189 274 312 271 275 227 242 194 226 241 109 78 74 32 67 7 3 135 261 313 236 311 175 299 318 335 335 303 294 251 312 313
338 336 333 330 330 333 341 85 95 97 107 117 132 335 287 331 315 318 267 247 327 346 39 52 49 77 42 70 237 283 353 315 264 301 349 302 266 279 305 301 281 295 298 276 288
337 334 331 328 331 335 7 102 18 4 176 213 197 259 290 327 307 282 305 143 78 52 49 18 76 181 222 194 204 225 190 225 262 280 350 304 296 291 281 286 273 280 284 286 281
340 332 329 328 331 11 39 68 27 257 311 235 243 247 268 303 318 303 256 152 91 282 87 22 248 219 225 232 178 172 186 294 288 288 322 287 289 288 240 247 242 258 283 288 296
344 333 330 328 349 64 82 59 350 115 319 301 198 193 219 149 226 263 150 154 173 229 210 154 237 141 215 55 51 275 182 250 256 311 271 319 283 217 224 244 258 263 249 269 271
344 334 333 350 105 35 79 350 344 124 45 309 341 296 144 163 270 221 192 154 186 199 196 233 271 238 330 277 144 312 197 241 291 5 309 74 292 262 210 244 259 264 267 276 287
350 339 339 11 40 86 336 335 358 92 73 311 7 100 140 180 325 297 166 94 214 177 117 245 257 222 246 230 166 225 199 272 249 258 335 218 246 260 330 291 270 262 261 230 237
354 348 1 94 107 355 337 341 113 47 62 338 48 353 2 7 338 315 320 82 140 154 227 239 223 195 213 172 175 72 20 334 38 105 317 236 188 279 215 233 286 277 275 258 278
357 3 38 120 345 340 339 63 45 99 310 356 303 4 52 325 357 7 6 22 196 122 285 326 246 292 123 61 17 77 53 329 328 349 236 176 308 253 279 288 269 266 260 269 256
354 15 39 355 339 343 360 57 85 222 354 315 312 333 121 359 52 337 12 357 13 58 91 176 297 175 154 166 211 218 160 172 260 231 287 242 245 254 238 267 259 239 262 281 279
7 360 19 357 345 340 69 61 177 90 298 286 322 307 163 350 353 9 329 218 188 139 183 174 266 285 256 237 152 171 183 197 233 234 360 229 275 290 261 254 239 252 262 261 276
3 350 4 343 333 12 72 219 206 265 312 257 218 222 231 208 247 28 292 258 167 213 139 205 278 243 277 328 243 165 172 80 12 294 258 250 262 244 297 277 254 271 260 279 296
9 51 351 344 332 47 114 238 278 268 322 256 239 244 228 204 200 214 243 289 198 149 117 158 162 283 6 225 223 227 233 72 181 187 239 296 262 190 231 243 256 265 279 300 291
357 16 353 4 46 27 123 225 293 277 352 316 303 257 205 202 233 227 221 213 124 132 214 189 166 245 232 263 236 200 223 169 200 236 243 275 263 322 287 266 278 285 292 288 288
19 283 351 10 89 334 314 300 269 303 307 323 303 7 24 222 254 215 224 167 148 137 188 194 233 326 319 1 19 124 182 150 287 259 247 248 266 1 307 297 292 271 293 298 296
54 356 331 35 56 90 356 274 290 311 246 310 274 94 360 270 231 275 253 297 304 221 284 169 189 201 232 261 279 285 277 274 248 256 277 237 276 284 289 291 295 285 287 289 288
25 343 182 310 6 359 241 281 288 303 350 307 294 230 55 275 295 244 260 293 300 277 281 163 250 246 258 265 270 266 265 265 246 252 253 280 275 286 295 299 293 287 300 306 301
47 31 358 289 296 287 217 244 276 347 301 285 247 328 299 226 217 278 287 192 234 295 158 176 251 238 275 265 257 271 275 261 255 251 255 275 279 253 277 287 301 303 307 306 308
14 2 84 287 322 337 232 257 244 23 263 245 344 320 273 270 264 249 238 241 229 201 202 197 220 248 266 18 323 274 255 208 187 215 198 250 285 322 307 308 304 302 294 289 289